Station History

Weather Underground - logo

Station Historical Data
 
Daily Summary for February 24, 2018 Units:  Both    English   Metric
« Previous Day
Next Day »
Daily Weekly Monthly Yearly Custom
  Current: High: Low: Average:
Temperature: 55.2 °F /  12.9 °C 55.2 °F /  12.9 °C 29.4 °F /  -1.4 °C 37.6 °F /  3.1 °C
Dew Point: 30.0 °F /  -1.1 °C 34.5 °F /  1.4 °C 26.2 °F /  -3.2 °C 29.4 °F /  -1.4 °C
Humidity: 38 % 89 % 38 % 75 %
Wind Speed: 1.2 mph /  1.9 km/h 3.5 mph /  5.6 km/h - 0.6 mph /  1 km/h
Wind Gust: 1.2 mph /  1.9 km/h 3.5 mph /  5.6 km/h - -
Wind:NNE - - WSW
Pressure: 30.40 in /  1029.3 hPa 30.47 in /  1031.7 hPa 30.40 in /  1029.3 hPa -
Precipitation: 0.00 in /  0 mm      
Historical Graphs
 
 
Tabular Data for February 24, 2018
Time Temperature Dew Point Pressure Wind Wind Speed Wind Gust Humidity Rainfall Rate (Hourly)
00:00 33.6 °F /  0.9 °C 29.3 °F /  -1.5 °C 30.42 in /  1030 hPa Calm     84 % 0.00 in /  0 mm
00:05 33.7 °F /  0.9 °C 29.4 °F /  -1.4 °C 30.42 in /  1030 hPa Calm     84 % 0.00 in /  0 mm
00:10 33.9 °F /  1.1 °C 29.3 °F /  -1.5 °C 30.42 in /  1030 hPa Calm     83 % 0.00 in /  0 mm
00:15 33.9 °F /  1.1 °C 29.3 °F /  -1.5 °C 30.43 in /  1030.4 hPa Calm     83 % 0.00 in /  0 mm
00:20 33.4 °F /  0.8 °C 29.1 °F /  -1.6 °C 30.43 in /  1030.4 hPa Calm     84 % 0.00 in /  0 mm
00:25 33.1 °F /  0.6 °C 29.4 °F /  -1.4 °C 30.43 in /  1030.4 hPa Calm     86 % 0.00 in /  0 mm
00:30 33.1 °F /  0.6 °C 29.4 °F /  -1.4 °C 30.43 in /  1030.4 hPa Calm     86 % 0.00 in /  0 mm
00:35 33.1 °F /  0.6 °C 29.4 °F /  -1.4 °C 30.44 in /  1030.7 hPa Calm     86 % 0.00 in /  0 mm
00:40 33.1 °F /  0.6 °C 29.4 °F /  -1.4 °C 30.43 in /  1030.4 hPa Calm     86 % 0.00 in /  0 mm
00:45 33.1 °F /  0.6 °C 29.1 °F /  -1.6 °C 30.44 in /  1030.7 hPa Calm     85 % 0.00 in /  0 mm
00:51 33.0 °F /  0.6 °C 29.0 °F /  -1.7 °C 30.44 in /  1030.7 hPa Calm     85 % 0.00 in /  0 mm
00:56 32.9 °F /  0.5 °C 28.9 °F /  -1.7 °C 30.43 in /  1030.4 hPa Calm     85 % 0.00 in /  0 mm
01:01 32.8 °F /  0.4 °C 28.8 °F /  -1.8 °C 30.43 in /  1030.4 hPa Calm     85 % 0.00 in /  0 mm
01:06 32.7 °F /  0.4 °C 28.7 °F /  -1.8 °C 30.43 in /  1030.4 hPa Calm     85 % 0.00 in /  0 mm
01:11 32.5 °F /  0.3 °C 28.5 °F /  -1.9 °C 30.43 in /  1030.4 hPa Calm     85 % 0.00 in /  0 mm
01:16 32.5 °F /  0.3 °C 28.5 °F /  -1.9 °C 30.43 in /  1030.4 hPa Calm     85 % 0.00 in /  0 mm
01:21 32.4 °F /  0.2 °C 28.4 °F /  -2 °C 30.43 in /  1030.4 hPa Calm     85 % 0.00 in /  0 mm
01:26 32.3 °F /  0.2 °C 28.3 °F /  -2.1 °C 30.43 in /  1030.4 hPa Calm     85 % 0.00 in /  0 mm
01:31 32.3 °F /  0.2 °C 28.6 °F /  -1.9 °C 30.43 in /  1030.4 hPa Calm     86 % 0.00 in /  0 mm
01:36 32.3 °F /  0.2 °C 28.6 °F /  -1.9 °C 30.43 in /  1030.4 hPa Calm     86 % 0.00 in /  0 mm
01:41 32.2 °F /  0.1 °C 28.5 °F /  -1.9 °C 30.43 in /  1030.4 hPa Calm     86 % 0.00 in /  0 mm
01:46 32.2 °F /  0.1 °C 28.8 °F /  -1.8 °C 30.43 in /  1030.4 hPa Calm     87 % 0.00 in /  0 mm
01:51 32.1 °F /  0.1 °C 28.7 °F /  -1.8 °C 30.43 in /  1030.4 hPa Calm     87 % 0.00 in /  0 mm
01:56 32.0 °F /  0 °C 28.6 °F /  -1.9 °C 30.43 in /  1030.4 hPa Calm     87 % 0.00 in /  0 mm
02:01 32.0 °F /  0 °C 28.8 °F /  -1.8 °C 30.43 in /  1030.4 hPa Calm     88 % 0.00 in /  0 mm
02:06 32.2 °F /  0.1 °C 28.8 °F /  -1.8 °C 30.43 in /  1030.4 hPa Calm     87 % 0.00 in /  0 mm
02:11 32.1 °F /  0.1 °C 28.7 °F /  -1.8 °C 30.43 in /  1030.4 hPa Calm     87 % 0.00 in /  0 mm
02:16 32.1 °F /  0.1 °C 28.9 °F /  -1.7 °C 30.43 in /  1030.4 hPa Calm     88 % 0.00 in /  0 mm
02:21 32.0 °F /  0 °C 28.6 °F /  -1.9 °C 30.43 in /  1030.4 hPa Calm     87 % 0.00 in /  0 mm
02:26 31.8 °F /  -0.1 °C 28.4 °F /  -2 °C 30.43 in /  1030.4 hPa Calm     87 % 0.00 in /  0 mm
02:31 31.7 °F /  -0.2 °C 28.6 °F /  -1.9 °C 30.43 in /  1030.4 hPa Calm     88 % 0.00 in /  0 mm
02:36 31.7 °F /  -0.2 °C 28.6 °F /  -1.9 °C 30.43 in /  1030.4 hPa Calm     88 % 0.00 in /  0 mm
02:41 31.7 °F /  -0.2 °C 28.3 °F /  -2.1 °C 30.43 in /  1030.4 hPa Calm     87 % 0.00 in /  0 mm
02:46 31.7 °F /  -0.2 °C 28.3 °F /  -2.1 °C 30.43 in /  1030.4 hPa Calm     87 % 0.00 in /  0 mm
02:51 31.5 °F /  -0.3 °C 27.8 °F /  -2.3 °C 30.43 in /  1030.4 hPa Calm     86 % 0.00 in /  0 mm
02:56 31.2 °F /  -0.4 °C 27.5 °F /  -2.5 °C 30.43 in /  1030.4 hPa Calm     86 % 0.00 in /  0 mm
03:01 31.2 °F /  -0.4 °C 27.8 °F /  -2.3 °C 30.43 in /  1030.4 hPa Calm     87 % 0.00 in /  0 mm
03:06 31.2 °F /  -0.4 °C 27.8 °F /  -2.3 °C 30.43 in /  1030.4 hPa Calm     87 % 0.00 in /  0 mm
03:11 31.3 °F /  -0.4 °C 27.9 °F /  -2.3 °C 30.43 in /  1030.4 hPa Calm     87 % 0.00 in /  0 mm
03:16 31.3 °F /  -0.4 °C 27.9 °F /  -2.3 °C 30.43 in /  1030.4 hPa Calm     87 % 0.00 in /  0 mm
03:21 31.4 °F /  -0.3 °C 28.0 °F /  -2.2 °C 30.43 in /  1030.4 hPa Calm     87 % 0.00 in /  0 mm
03:26 31.2 °F /  -0.4 °C 27.8 °F /  -2.3 °C 30.43 in /  1030.4 hPa Calm     87 % 0.00 in /  0 mm
03:31 31.1 °F /  -0.5 °C 27.7 °F /  -2.4 °C 30.43 in /  1030.4 hPa Calm     87 % 0.00 in /  0 mm
03:36 30.8 °F /  -0.7 °C 27.4 °F /  -2.6 °C 30.43 in /  1030.4 hPa Calm     87 % 0.00 in /  0 mm
03:41 30.8 °F /  -0.7 °C 27.7 °F /  -2.4 °C 30.43 in /  1030.4 hPa Calm     88 % 0.00 in /  0 mm
03:46 31.0 °F /  -0.6 °C 27.9 °F /  -2.3 °C 30.43 in /  1030.4 hPa Calm     88 % 0.00 in /  0 mm
03:51 31.3 °F /  -0.4 °C 28.2 °F /  -2.1 °C 30.43 in /  1030.4 hPa Calm     88 % 0.00 in /  0 mm
03:56 31.5 °F /  -0.3 °C 28.1 °F /  -2.2 °C 30.43 in /  1030.4 hPa Calm     87 % 0.00 in /  0 mm
04:01 31.7 °F /  -0.2 °C 28.0 °F /  -2.2 °C 30.43 in /  1030.4 hPa NNW 1.2 mph /  1.9 km/h 1.2 mph /  1.9 km/h 86 % 0.00 in /  0 mm
04:06 31.7 °F /  -0.2 °C 28.0 °F /  -2.2 °C 30.43 in /  1030.4 hPa NNW 1.0 mph /  1.6 km/h   86 % 0.00 in /  0 mm
04:11 31.7 °F /  -0.2 °C 28.0 °F /  -2.2 °C 30.44 in /  1030.7 hPa Calm     86 % 0.00 in /  0 mm
04:16 31.6 °F /  -0.2 °C 27.9 °F /  -2.3 °C 30.44 in /  1030.7 hPa Calm     86 % 0.00 in /  0 mm
04:21 31.2 °F /  -0.4 °C 27.5 °F /  -2.5 °C 30.44 in /  1030.7 hPa Calm     86 % 0.00 in /  0 mm
04:27 30.8 °F /  -0.7 °C 27.1 °F /  -2.7 °C 30.44 in /  1030.7 hPa Calm     86 % 0.00 in /  0 mm
04:32 30.6 °F /  -0.8 °C 27.5 °F /  -2.5 °C 30.44 in /  1030.7 hPa Calm     88 % 0.00 in /  0 mm
04:37 30.8 °F /  -0.7 °C 27.7 °F /  -2.4 °C 30.44 in /  1030.7 hPa Calm     88 % 0.00 in /  0 mm
04:42 31.0 °F /  -0.6 °C 27.9 °F /  -2.3 °C 30.44 in /  1030.7 hPa Calm     88 % 0.00 in /  0 mm
04:47 31.0 °F /  -0.6 °C 27.6 °F /  -2.4 °C 30.44 in /  1030.7 hPa Calm     87 % 0.00 in /  0 mm
04:52 31.0 °F /  -0.6 °C 27.6 °F /  -2.4 °C 30.44 in /  1030.7 hPa Calm     87 % 0.00 in /  0 mm
04:57 30.8 °F /  -0.7 °C 27.4 °F /  -2.6 °C 30.44 in /  1030.7 hPa Calm     87 % 0.00 in /  0 mm
05:02 30.6 °F /  -0.8 °C 26.9 °F /  -2.8 °C 30.45 in /  1031 hPa Calm     86 % 0.00 in /  0 mm
05:07 30.3 °F /  -0.9 °C 26.9 °F /  -2.8 °C 30.45 in /  1031 hPa Calm     87 % 0.00 in /  0 mm
05:12 30.1 °F /  -1.1 °C 26.7 °F /  -2.9 °C 30.45 in /  1031 hPa Calm     87 % 0.00 in /  0 mm
05:17 30.0 °F /  -1.1 °C 26.9 °F /  -2.8 °C 30.45 in /  1031 hPa Calm     88 % 0.00 in /  0 mm
05:22 30.0 °F /  -1.1 °C 26.9 °F /  -2.8 °C 30.45 in /  1031 hPa Calm     88 % 0.00 in /  0 mm
05:27 30.0 °F /  -1.1 °C 27.2 °F /  -2.7 °C 30.45 in /  1031 hPa Calm     89 % 0.00 in /  0 mm
05:32 30.1 °F /  -1.1 °C 27.3 °F /  -2.6 °C 30.45 in /  1031 hPa Calm     89 % 0.00 in /  0 mm
05:37 30.2 °F /  -1 °C 27.3 °F /  -2.6 °C 30.45 in /  1031 hPa Calm     89 % 0.00 in /  0 mm
05:42 30.1 °F /  -1.1 °C 27.3 °F /  -2.6 °C 30.45 in /  1031 hPa Calm     89 % 0.00 in /  0 mm
05:47 30.0 °F /  -1.1 °C 27.2 °F /  -2.7 °C 30.45 in /  1031 hPa Calm     89 % 0.00 in /  0 mm
05:52 29.8 °F /  -1.2 °C 27.0 °F /  -2.8 °C 30.45 in /  1031 hPa Calm     89 % 0.00 in /  0 mm
05:57 29.8 °F /  -1.2 °C 27.0 °F /  -2.8 °C 30.45 in /  1031 hPa Calm     89 % 0.00 in /  0 mm
06:02 29.6 °F /  -1.3 °C 26.8 °F /  -2.9 °C 30.46 in /  1031.4 hPa Calm     89 % 0.00 in /  0 mm
06:07 29.5 °F /  -1.4 °C 26.7 °F /  -2.9 °C 30.45 in /  1031 hPa Calm     89 % 0.00 in /  0 mm
06:12 29.4 °F /  -1.4 °C 26.6 °F /  -3 °C 30.45 in /  1031 hPa Calm     89 % 0.00 in /  0 mm
06:17 29.4 °F /  -1.4 °C 26.6 °F /  -3 °C 30.45 in /  1031 hPa Calm     89 % 0.00 in /  0 mm
06:22 29.5 °F /  -1.4 °C 26.7 °F /  -2.9 °C 30.45 in /  1031 hPa Calm     89 % 0.00 in /  0 mm
06:27 29.8 °F /  -1.2 °C 27.0 °F /  -2.8 °C 30.45 in /  1031 hPa Calm     89 % 0.00 in /  0 mm
06:32 29.9 °F /  -1.2 °C 26.8 °F /  -2.9 °C 30.45 in /  1031 hPa Calm     88 % 0.00 in /  0 mm
06:37 29.8 °F /  -1.2 °C 26.7 °F /  -2.9 °C 30.45 in /  1031 hPa Calm     88 % 0.00 in /  0 mm
06:42 29.6 °F /  -1.3 °C 26.2 °F /  -3.2 °C 30.45 in /  1031 hPa Calm     87 % 0.00 in /  0 mm
06:47 29.4 °F /  -1.4 °C 26.3 °F /  -3.2 °C 30.45 in /  1031 hPa Calm     88 % 0.00 in /  0 mm
06:52 29.7 °F /  -1.3 °C 26.6 °F /  -3 °C 30.45 in /  1031 hPa Calm     88 % 0.00 in /  0 mm
06:57 30.1 °F /  -1.1 °C 27.0 °F /  -2.8 °C 30.45 in /  1031 hPa Calm     88 % 0.00 in /  0 mm
07:02 30.4 °F /  -0.9 °C 27.3 °F /  -2.6 °C 30.45 in /  1031 hPa Calm     88 % 0.00 in /  0 mm
07:07 30.6 °F /  -0.8 °C 27.2 °F /  -2.7 °C 30.46 in /  1031.4 hPa Calm     87 % 0.00 in /  0 mm
07:12 31.0 °F /  -0.6 °C 27.6 °F /  -2.4 °C 30.46 in /  1031.4 hPa Calm     87 % 0.00 in /  0 mm
07:17 31.5 °F /  -0.3 °C 27.8 °F /  -2.3 °C 30.46 in /  1031.4 hPa Calm     86 % 0.00 in /  0 mm
07:23 32.1 °F /  0.1 °C 28.4 °F /  -2 °C 30.46 in /  1031.4 hPa Calm     86 % 0.00 in /  0 mm
07:28 32.4 °F /  0.2 °C 28.4 °F /  -2 °C 30.46 in /  1031.4 hPa Calm     85 % 0.00 in /  0 mm
07:33 32.8 °F /  0.4 °C 28.8 °F /  -1.8 °C 30.47 in /  1031.7 hPa Calm     85 % 0.00 in /  0 mm
07:38 33.7 °F /  0.9 °C 29.7 °F /  -1.3 °C 30.46 in /  1031.4 hPa Calm     85 % 0.00 in /  0 mm
07:43 35.7 °F /  2.1 °C 31.0 °F /  -0.6 °C 30.47 in /  1031.7 hPa Calm     83 % 0.00 in /  0 mm
07:48 37.6 °F /  3.1 °C 32.0 °F /  0 °C 30.47 in /  1031.7 hPa Calm     80 % 0.00 in /  0 mm
07:53 38.8 °F /  3.8 °C 32.2 °F /  0.1 °C 30.46 in /  1031.4 hPa Calm     77 % 0.00 in /  0 mm
07:58 39.7 °F /  4.3 °C 32.8 °F /  0.4 °C 30.46 in /  1031.4 hPa Calm     76 % 0.00 in /  0 mm
08:03 40.7 °F /  4.8 °C 33.1 °F /  0.6 °C 30.46 in /  1031.4 hPa SE 1.2 mph /  1.9 km/h   74 % 0.00 in /  0 mm
08:08 41.7 °F /  5.4 °C 34.4 °F /  1.3 °C 30.46 in /  1031.4 hPa Calm     75 % 0.00 in /  0 mm
08:13 42.5 °F /  5.8 °C 34.1 °F /  1.2 °C 30.46 in /  1031.4 hPa Calm     72 % 0.00 in /  0 mm
08:18 43.2 °F /  6.2 °C 34.1 °F /  1.2 °C 30.46 in /  1031.4 hPa Calm     70 % 0.00 in /  0 mm
08:23 44.0 °F /  6.7 °C 33.7 °F /  0.9 °C 30.46 in /  1031.4 hPa Calm     67 % 0.00 in /  0 mm
08:28 44.4 °F /  6.9 °C 34.1 °F /  1.2 °C 30.46 in /  1031.4 hPa Calm     67 % 0.00 in /  0 mm
08:33 45.2 °F /  7.3 °C 34.5 °F /  1.4 °C 30.47 in /  1031.7 hPa Calm     66 % 0.00 in /  0 mm
08:38 45.7 °F /  7.6 °C 33.0 °F /  0.6 °C 30.46 in /  1031.4 hPa SSE 2.3 mph /  3.7 km/h 2.3 mph /  3.7 km/h 61 % 0.00 in /  0 mm
08:43 46.3 °F /  7.9 °C 32.7 °F /  0.4 °C 30.47 in /  1031.7 hPa ESE 1.2 mph /  1.9 km/h 1.2 mph /  1.9 km/h 59 % 0.00 in /  0 mm
08:48 46.2 °F /  7.9 °C 32.2 °F /  0.1 °C 30.47 in /  1031.7 hPa South 1.0 mph /  1.6 km/h 1.0 mph /  1.6 km/h 58 % 0.00 in /  0 mm
08:53 46.7 °F /  8.2 °C 32.7 °F /  0.4 °C 30.47 in /  1031.7 hPa SW 1.2 mph /  1.9 km/h 1.2 mph /  1.9 km/h 58 % 0.00 in /  0 mm
08:58 46.7 °F /  8.2 °C 31.4 °F /  -0.3 °C 30.47 in /  1031.7 hPa North 1.2 mph /  1.9 km/h 1.2 mph /  1.9 km/h 55 % 0.00 in /  0 mm
09:03 46.3 °F /  7.9 °C 32.3 °F /  0.2 °C 30.47 in /  1031.7 hPa NW 2.3 mph /  3.7 km/h 2.3 mph /  3.7 km/h 58 % 0.00 in /  0 mm
09:08 46.1 °F /  7.8 °C 32.1 °F /  0.1 °C 30.46 in /  1031.4 hPa NNW 1.2 mph /  1.9 km/h 1.2 mph /  1.9 km/h 58 % 0.00 in /  0 mm
09:13 46.2 °F /  7.9 °C 31.8 °F /  -0.1 °C 30.46 in /  1031.4 hPa NW 2.3 mph /  3.7 km/h 2.3 mph /  3.7 km/h 57 % 0.00 in /  0 mm
09:18 45.8 °F /  7.7 °C 31.0 °F /  -0.6 °C 30.46 in /  1031.4 hPa NW 1.0 mph /  1.6 km/h 1.0 mph /  1.6 km/h 56 % 0.00 in /  0 mm
09:23 46.1 °F /  7.8 °C 30.8 °F /  -0.7 °C 30.47 in /  1031.7 hPa NW 2.3 mph /  3.7 km/h 2.3 mph /  3.7 km/h 55 % 0.00 in /  0 mm
09:28 46.8 °F /  8.2 °C 31.5 °F /  -0.3 °C 30.47 in /  1031.7 hPa NNW 2.3 mph /  3.7 km/h 2.3 mph /  3.7 km/h 55 % 0.00 in /  0 mm
09:33 47.1 °F /  8.4 °C 31.3 °F /  -0.4 °C 30.47 in /  1031.7 hPa SSE 2.3 mph /  3.7 km/h 2.3 mph /  3.7 km/h 54 % 0.00 in /  0 mm
09:38 47.8 °F /  8.8 °C 31.9 °F /  -0.1 °C 30.47 in /  1031.7 hPa SW 3.5 mph /  5.6 km/h 3.5 mph /  5.6 km/h 54 % 0.00 in /  0 mm
09:43 47.7 °F /  8.7 °C 30.9 °F /  -0.6 °C 30.46 in /  1031.4 hPa NW 2.3 mph /  3.7 km/h 2.3 mph /  3.7 km/h 52 % 0.00 in /  0 mm
09:48 47.7 °F /  8.7 °C 31.4 °F /  -0.3 °C 30.46 in /  1031.4 hPa NW 2.3 mph /  3.7 km/h 2.3 mph /  3.7 km/h 53 % 0.00 in /  0 mm
09:53 48.0 °F /  8.9 °C 31.2 °F /  -0.4 °C 30.46 in /  1031.4 hPa NW 3.5 mph /  5.6 km/h 3.5 mph /  5.6 km/h 52 % 0.00 in /  0 mm
09:58 48.5 °F /  9.2 °C 31.7 °F /  -0.2 °C 30.46 in /  1031.4 hPa WNW 2.0 mph /  3.2 km/h 2.0 mph /  3.2 km/h 52 % 0.00 in /  0 mm
10:03 49.1 °F /  9.5 °C 32.2 °F /  0.1 °C 30.46 in /  1031.4 hPa SSE 1.2 mph /  1.9 km/h 1.2 mph /  1.9 km/h 52 % 0.00 in /  0 mm
10:08 49.7 °F /  9.8 °C 31.8 °F /  -0.1 °C 30.46 in /  1031.4 hPa WNW 2.3 mph /  3.7 km/h 2.3 mph /  3.7 km/h 50 % 0.00 in /  0 mm
10:13 49.7 °F /  9.8 °C 31.8 °F /  -0.1 °C 30.46 in /  1031.4 hPa South 2.0 mph /  3.2 km/h 2.0 mph /  3.2 km/h 50 % 0.00 in /  0 mm
10:18 50.4 °F /  10.2 °C 32.4 °F /  0.2 °C 30.45 in /  1031 hPa SSE 3.0 mph /  4.8 km/h 3.0 mph /  4.8 km/h 50 % 0.00 in /  0 mm
10:23 50.7 °F /  10.4 °C 32.2 °F /  0.1 °C 30.45 in /  1031 hPa SSE 1.2 mph /  1.9 km/h 1.2 mph /  1.9 km/h 49 % 0.00 in /  0 mm
10:28 50.8 °F /  10.4 °C 31.8 °F /  -0.1 °C 30.45 in /  1031 hPa NNW 2.3 mph /  3.7 km/h 2.3 mph /  3.7 km/h 48 % 0.00 in /  0 mm
10:33 50.4 °F /  10.2 °C 31.4 °F /  -0.3 °C 30.45 in /  1031 hPa West 2.3 mph /  3.7 km/h 2.3 mph /  3.7 km/h 48 % 0.00 in /  0 mm
10:38 50.1 °F /  10.1 °C 30.6 °F /  -0.8 °C 30.45 in /  1031 hPa NW 2.3 mph /  3.7 km/h 2.3 mph /  3.7 km/h 47 % 0.00 in /  0 mm
10:43 50.3 °F /  10.2 °C 31.8 °F /  -0.1 °C 30.44 in /  1030.7 hPa NW 1.2 mph /  1.9 km/h 1.2 mph /  1.9 km/h 49 % 0.00 in /  0 mm
10:48 50.9 °F /  10.5 °C 31.9 °F /  -0.1 °C 30.44 in /  1030.7 hPa WNW 1.2 mph /  1.9 km/h 1.2 mph /  1.9 km/h 48 % 0.00 in /  0 mm
10:53 51.2 °F /  10.7 °C 32.2 °F /  0.1 °C 30.44 in /  1030.7 hPa SSE 2.0 mph /  3.2 km/h 2.0 mph /  3.2 km/h 48 % 0.00 in /  0 mm
10:58 52.1 °F /  11.2 °C 31.9 °F /  -0.1 °C 30.44 in /  1030.7 hPa WSW 1.2 mph /  1.9 km/h 1.2 mph /  1.9 km/h 46 % 0.00 in /  0 mm
11:03 51.6 °F /  10.9 °C 30.4 °F /  -0.9 °C 30.44 in /  1030.7 hPa West 2.3 mph /  3.7 km/h 2.3 mph /  3.7 km/h 44 % 0.00 in /  0 mm
11:08 51.2 °F /  10.7 °C 30.6 °F /  -0.8 °C 30.43 in /  1030.4 hPa West 1.2 mph /  1.9 km/h 1.2 mph /  1.9 km/h 45 % 0.00 in /  0 mm
11:13 51.5 °F /  10.8 °C 31.4 °F /  -0.3 °C 30.43 in /  1030.4 hPa WNW 3.5 mph /  5.6 km/h 3.5 mph /  5.6 km/h 46 % 0.00 in /  0 mm
11:18 52.6 °F /  11.4 °C 33.5 °F /  0.8 °C 30.42 in /  1030 hPa SSW 1.2 mph /  1.9 km/h 1.2 mph /  1.9 km/h 48 % 0.00 in /  0 mm
11:23 53.6 °F /  12 °C 32.8 °F /  0.4 °C 30.42 in /  1030 hPa South 3.5 mph /  5.6 km/h   45 % 0.00 in /  0 mm
11:28 54.1 °F /  12.3 °C 32.6 °F /  0.3 °C 30.42 in /  1030 hPa NNE 2.0 mph /  3.2 km/h 2.0 mph /  3.2 km/h 44 % 0.00 in /  0 mm
11:33 53.9 °F /  12.2 °C 30.7 °F /  -0.7 °C 30.42 in /  1030 hPa NNW 1.2 mph /  1.9 km/h 1.4 mph /  2.3 km/h 41 % 0.00 in /  0 mm
11:38 53.5 °F /  11.9 °C 31.0 °F /  -0.6 °C 30.41 in /  1029.7 hPa WNW 2.3 mph /  3.7 km/h 2.3 mph /  3.7 km/h 42 % 0.00 in /  0 mm
11:43 53.9 °F /  12.2 °C 31.9 °F /  -0.1 °C 30.41 in /  1029.7 hPa NW 2.3 mph /  3.7 km/h 2.3 mph /  3.7 km/h 43 % 0.00 in /  0 mm
11:48 53.8 °F /  12.1 °C 30.6 °F /  -0.8 °C 30.41 in /  1029.7 hPa West 2.3 mph /  3.7 km/h 2.3 mph /  3.7 km/h 41 % 0.00 in /  0 mm
11:53 54.1 °F /  12.3 °C 30.9 °F /  -0.6 °C 30.41 in /  1029.7 hPa WNW 2.3 mph /  3.7 km/h 2.3 mph /  3.7 km/h 41 % 0.00 in /  0 mm
11:58 54.6 °F /  12.6 °C 31.3 °F /  -0.4 °C 30.41 in /  1029.7 hPa NNW 2.3 mph /  3.7 km/h 2.3 mph /  3.7 km/h 41 % 0.00 in /  0 mm
12:03 54.7 °F /  12.6 °C 30.8 °F /  -0.7 °C 30.40 in /  1029.3 hPa NW 2.3 mph /  3.7 km/h 2.3 mph /  3.7 km/h 40 % 0.00 in /  0 mm
12:08 55.2 °F /  12.9 °C 30.0 °F /  -1.1 °C 30.40 in /  1029.3 hPa NNE 1.2 mph /  1.9 km/h 1.2 mph /  1.9 km/h 38 % 0.00 in /  0 mm
Park Place, Exeter, Tulare County, California, USA
Compliments of Weather Underground - 2 mb